STARLINK-30844, 58403

Orbit data source: Space-Track

STARLINK-30844, 58403 is a payload satellite owned by SpaceX/Seattle (US) in LEO that was launched on Wed, 22 Nov 2023 UTC via an FALCON 9 launch vehicle from the Air Force Eastern Test Range (AFETR). Payload-class satellites include a variety of spacecraft equipped with specific instruments for various scientific and technological missions. These include communications satellites like Starlink; space stations such as the ISS; scientific satellites like the Hubble; Earth observation satellites from companies like Planet Labs, Umbra, and HawkEye 360; GPS; miniature CubeSats for education and research; and military/defense satellites.

Loading next visibility...
Identifier
58403, 2023-180B
Orbit
LEO
Country
Flag of USUS
Related business
Manufacturer
SpaceX/Seattle
Mission
Operational Commercial Communications
Bus & Motor
STARLINK V2M, Unknown motor
Mass
730 kg wet, ~700 kg dry
Launch date (UTC)
2023-11-22 (2 years ago)
Launch vehicle
FALCON 9
Launch site
Air Force Eastern Test Range (AFETR)
Object type
Payload
Rocket body
Debris
Shape & HBR
Box + 2 Pan, 14.5 m
Radar Cross Section
33.884 m², Large (>1 m²)

Expand to show TLE details & history
Last TLE update: 14 hours ago

TLE from 14 hours ago
0 STARLINK-30844
1 58403U 23180B   25249.30391066  .00002971  00000-0  23492-3 0  9996
2 58403  43.0025 338.3653 0001550 268.2408  91.8257 15.02531807 99730
Epoch: 2025-09-06T07:17Z
TLE epoch observation values (Epoch: 2025-09-06T07:17:37.881Z)
Latitude
0.00001°
Longitude
-116.68219°
Altitude
558.905 km
Speed
7.584 km/s
True Right ascension
22h 33m 27s
True Declination
0° 00' 00"
Sunlit
Object was in full shadow at epoch
Visualization orbit readout
Latitude
Unknown
Longitude
Unknown
Altitude
Unknown
Speed
Unknown
Apparent Right ascension
Unknown
Apparent Declination
Unknown
Sunlit
N/A
Visualization observer readout
Local Sidereal Time
13:03:27
Azimuth
Unknown
Elevation
Unknown
Doppler factor
Unknown
Orbital elements
Apogee altitude
562.092 km
Perigee altitude
559.94 km
Semi-major axis
6,939.153 km
Eccentricity
0.00016
Inclination
43.0025°
RAAN
338.3653°
Arg. of periapsis
268.2408°
True anomaly
91.84345°
Mean anomaly
91.8257°
Eccentric anomaly
91.83458°
Mean motion
3.75477 °/min
Orbital period
95.88 mins
BSTAR
0.00023492
Loading maneuver chart data...
Computing Atmospheric mass density...
Loading historical data...
Loading historical data...
Loading historical data...
Loading historical data...
Loading historical data...
Loading historical data...
Loading historical data...

Documentation

Showing up to 5 results
|